Time,TemperatureF,DewpointF,PressureIn,WindDirection,WindDirectionDegrees,WindSpeedMPH,WindSpeedGustMPH,Humidity,HourlyPrecipIn,Conditions,Clouds,dailyrainin,SoftwareType,DateUTC
2013-05-17 00:00:00,64.1,61.1,29.76,ESE,105,6.0,11.0,90,0.16,,-RA,0.00,VWS V14.01,2013-05-17 05:00:00,
2013-05-17 00:01:00,64.2,61.2,29.76,SE,131,8.0,8.0,90,0.09,,-RA,0.00,VWS V14.01,2013-05-17 05:01:00,
2013-05-17 00:06:00,64.4,61.4,29.76,NE,56,7.0,10.0,90,0.09,,-RA,0.00,VWS V14.01,2013-05-17 05:06:00,
2013-05-17 00:11:00,64.3,61.6,29.76,ESE,111,3.0,10.0,91,0.09,,-RA,0.00,VWS V14.01,2013-05-17 05:11:00,
2013-05-17 00:16:00,64.5,61.5,29.77,ESE,111,7.0,11.0,90,0.09,,-RA,0.00,VWS V14.01,2013-05-17 05:16:00,
2013-05-17 00:21:00,64.7,61.7,29.77,ESE,105,5.0,11.0,90,0.09,,-RA,0.00,VWS V14.01,2013-05-17 05:21:00,
2013-05-17 00:26:00,64.8,61.8,29.77,ESE,110,8.0,11.0,90,0.09,,-RA,0.00,VWS V14.01,2013-05-17 05:26:00,
2013-05-17 00:30:00,64.9,62.2,29.78,ESE,113,6.0,11.0,91,0.09,,-RA,0.00,VWS V14.01,2013-05-17 05:30:00,
2013-05-17 00:31:00,64.9,62.2,29.78,ESE,120,5.0,6.0,91,0.03,,-RA,0.00,VWS V14.01,2013-05-17 05:31:00,
2013-05-17 00:36:00,64.9,62.2,29.78,ESE,110,4.0,6.0,91,0.03,,-RA,0.00,VWS V14.01,2013-05-17 05:36:00,
2013-05-17 00:41:00,65.1,62.1,29.79,ESE,117,6.0,8.0,90,0.03,,-RA,0.00,VWS V14.01,2013-05-17 05:41:00,
2013-05-17 00:46:00,65.2,62.2,29.78,ESE,116,5.0,8.0,90,0.03,,-RA,0.00,VWS V14.01,2013-05-17 05:46:00,
2013-05-17 00:51:00,65.0,62.3,29.79,SE,133,3.0,8.0,91,0.03,,-RA,0.00,VWS V14.01,2013-05-17 05:51:00,
2013-05-17 00:56:00,64.8,62.4,29.79,ESE,115,5.0,8.0,92,0.03,,-RA,0.00,VWS V14.01,2013-05-17 05:56:00,
2013-05-17 01:00:00,64.7,62.3,29.78,SE,124,5.0,8.0,92,0.03,,-RA,0.00,VWS V14.01,2013-05-17 06:00:00,
2013-05-17 01:01:00,64.7,62.3,29.78,ESE,121,5.0,6.0,92,0.00,,BKN110,0.00,VWS V14.01,2013-05-17 06:01:00,
2013-05-17 01:06:00,64.8,62.1,29.78,SE,129,7.0,9.0,91,0.00,,BKN110,0.00,VWS V14.01,2013-05-17 06:06:00,
2013-05-17 01:11:00,64.8,62.1,29.78,East,88,8.0,10.0,91,0.00,,BKN110,0.00,VWS V14.01,2013-05-17 06:11:00,
2013-05-17 01:16:00,64.6,61.9,29.78,East,97,8.0,10.0,91,0.00,,BKN110,0.00,VWS V14.01,2013-05-17 06:16:00,
2013-05-17 01:21:00,64.5,61.5,29.77,SE,125,5.0,10.0,90,0.00,,BKN110,0.00,VWS V14.01,2013-05-17 06:21:00,
2013-05-17 01:26:00,64.4,61.4,29.77,East,99,7.0,10.0,90,0.00,,BKN110,0.00,VWS V14.01,2013-05-17 06:26:00,
2013-05-17 01:30:00,64.3,61.3,29.77,East,99,8.0,10.0,90,0.00,,-RA,0.00,VWS V14.01,2013-05-17 06:30:00,
2013-05-17 01:31:00,64.3,61.3,29.77,East,89,6.0,8.0,90,0.00,,BKN110,0.00,VWS V14.01,2013-05-17 06:31:00,
2013-05-17 01:36:00,64.0,61.0,29.77,East,99,7.0,10.0,90,0.00,,BKN110,0.00,VWS V14.01,2013-05-17 06:36:00,
2013-05-17 01:41:00,64.1,60.8,29.77,East,91,1.0,10.0,89,0.00,,BKN110,0.00,VWS V14.01,2013-05-17 06:41:00,
2013-05-17 01:46:00,64.2,60.6,29.77,East,92,3.0,10.0,88,0.00,, +RA,0.00,VWS V14.01,2013-05-17 06:46:00,
2013-05-17 01:51:00,64.1,60.8,29.77,East,85,5.0,10.0,89,0.00,,-RA,0.00,VWS V14.01,2013-05-17 06:51:00,
2013-05-17 01:56:00,64.0,60.7,29.77,East,90,2.0,10.0,89,0.00,,-RA,0.00,VWS V14.01,2013-05-17 06:56:00,
2013-05-17 02:00:00,63.9,60.6,29.77,East,99,0.0,10.0,89,0.00,,-RA,0.00,VWS V14.01,2013-05-17 07:00:00,
2013-05-17 02:01:00,63.9,60.6,29.77,East,99,0.0,0.0,89,0.00,,OVC065,0.00,VWS V14.01,2013-05-17 07:01:00,
2013-05-17 02:06:00,63.9,60.6,29.77,East,87,0.0,2.0,89,0.00,,OVC065,0.00,VWS V14.01,2013-05-17 07:06:00,
2013-05-17 02:11:00,63.8,60.8,29.77,East,91,0.0,3.0,90,0.00,,OVC036,0.00,VWS V14.01,2013-05-17 07:11:00,
2013-05-17 02:16:00,63.7,61.0,29.77,ENE,77,1.0,3.0,91,0.00,,OVC036,0.00,VWS V14.01,2013-05-17 07:16:00,
2013-05-17 02:21:00,63.5,60.8,29.77,ENE,75,0.0,3.0,91,0.00,,OVC036,0.00,VWS V14.01,2013-05-17 07:21:00,
2013-05-17 02:26:00,63.5,60.8,29.78,East,85,0.0,4.0,91,0.00,,OVC036,0.00,VWS V14.01,2013-05-17 07:26:00,
2013-05-17 02:30:00,63.5,60.8,29.78,East,91,2.0,4.0,91,0.00,,-RA,0.00,VWS V14.01,2013-05-17 07:30:00,
2013-05-17 02:31:00,63.5,60.8,29.78,ESE,103,1.0,2.0,91,0.00,,OVC036,0.00,VWS V14.01,2013-05-17 07:31:00,
2013-05-17 02:36:00,63.6,60.6,29.78,East,85,5.0,6.0,90,0.00,,OVC036,0.00,VWS V14.01,2013-05-17 07:36:00,
2013-05-17 02:41:00,63.6,60.6,29.78,ESE,105,4.0,6.0,90,0.00,,OVC036,0.00,VWS V14.01,2013-05-17 07:41:00,
2013-05-17 02:46:00,63.7,60.4,29.78,East,94,5.0,8.0,89,0.00,,OVC036,0.00,VWS V14.01,2013-05-17 07:46:00,
2013-05-17 02:51:00,63.7,60.4,29.78,East,97,5.0,8.0,89,0.00,,OVC036,0.00,VWS V14.01,2013-05-17 07:51:00,
2013-05-17 02:56:00,63.7,60.4,29.78,East,89,3.0,8.0,89,0.00,,OVC036,0.00,VWS V14.01,2013-05-17 07:56:00,
2013-05-17 03:00:00,63.6,60.3,29.78,East,80,1.0,8.0,89,0.00,,-RA,0.00,VWS V14.01,2013-05-17 08:00:00,
2013-05-17 03:01:00,63.6,60.3,29.78,ENE,76,1.0,1.0,89,0.00,,OVC110,0.00,VWS V14.01,2013-05-17 08:01:00,
2013-05-17 03:06:00,63.5,60.5,29.78,ENE,70,1.0,4.0,90,0.00,,OVC110,0.00,VWS V14.01,2013-05-17 08:06:00,
2013-05-17 03:11:00,63.4,59.8,29.78,ESE,103,3.0,7.0,88,0.00,,-RA,0.00,VWS V14.01,2013-05-17 08:11:00,
2013-05-17 03:16:00,63.4,59.8,29.78,ESE,109,4.0,7.0,88,0.00,,-RA,0.00,VWS V14.01,2013-05-17 08:16:00,
2013-05-17 03:21:00,63.4,59.8,29.78,North,356,0.0,7.0,88,0.00,,-RA,0.00,VWS V14.01,2013-05-17 08:21:00,
2013-05-17 03:26:00,63.2,59.6,29.79,NNE,13,1.0,7.0,88,0.00,,-RA,0.00,VWS V14.01,2013-05-17 08:26:00,
2013-05-17 03:30:00,63.1,60.1,29.79,NNW,337,1.0,7.0,90,0.00,,-RA,0.00,VWS V14.01,2013-05-17 08:30:00,
2013-05-17 03:31:00,63.1,60.1,29.80,NNW,337,1.0,1.0,90,0.00,,-RA,0.00,VWS V14.01,2013-05-17 08:31:00,
2013-05-17 03:36:00,63.0,60.3,29.81,North,9,7.0,7.0,91,0.00,,-RA,0.00,VWS V14.01,2013-05-17 08:36:00,
2013-05-17 03:41:00,62.8,60.1,29.81,NNW,341,7.0,9.0,91,0.00,,-RA,0.00,VWS V14.01,2013-05-17 08:41:00,
2013-05-17 03:46:00,62.6,60.2,29.81,NE,36,1.0,9.0,92,0.00,,-RA,0.00,VWS V14.01,2013-05-17 08:46:00,
2013-05-17 03:51:00,62.5,60.2,29.82,NNW,342,5.0,11.0,92,0.01,,-RA,0.01,VWS V14.01,2013-05-17 08:51:00,
2013-05-17 03:56:00,62.4,60.0,29.84,NW,316,4.0,11.0,92,0.01,,RA,0.01,VWS V14.01,2013-05-17 08:56:00,
2013-05-17 04:00:00,62.5,60.2,29.84,NNE,26,4.0,11.0,92,0.01,,-RA,0.01,VWS V14.01,2013-05-17 09:00:00,
2013-05-17 04:01:00,62.5,60.2,29.83,NE,41,4.0,4.0,92,0.01,,,0.01,VWS V14.01,2013-05-17 09:01:00,
2013-05-17 04:06:00,62.6,59.9,29.83,ENE,70,2.0,9.0,91,0.01,,,0.01,VWS V14.01,2013-05-17 09:06:00,
2013-05-17 04:11:00,62.6,59.6,29.83,NNE,21,4.0,9.0,90,0.02,,,0.02,VWS V14.01,2013-05-17 09:11:00,
2013-05-17 04:16:00,62.8,59.5,29.83,NNE,26,3.0,10.0,89,0.02,,,0.02,VWS V14.01,2013-05-17 09:16:00,
2013-05-17 04:21:00,62.7,59.7,29.83,NNE,19,7.0,10.0,90,0.02,,,0.02,VWS V14.01,2013-05-17 09:21:00,
2013-05-17 04:26:00,62.3,59.6,29.83,NE,40,1.0,10.0,91,0.02,,,0.02,VWS V14.01,2013-05-17 09:26:00,
2013-05-17 04:30:00,62.1,59.8,29.83,NNE,21,2.0,10.0,92,0.02,,-RA,0.02,VWS V14.01,2013-05-17 09:30:00,
2013-05-17 04:31:00,62.1,59.8,29.83,NNE,28,2.0,2.0,92,0.02,,,0.02,VWS V14.01,2013-05-17 09:31:00,
2013-05-17 04:36:00,62.0,59.7,29.83,ENE,60,2.0,5.0,92,0.02,,,0.02,VWS V14.01,2013-05-17 09:36:00,
2013-05-17 04:41:00,61.9,59.9,29.83,NNE,30,1.0,5.0,93,0.02,,,0.02,VWS V14.01,2013-05-17 09:41:00,
2013-05-17 04:46:00,61.8,59.8,29.83,NE,44,1.0,5.0,93,0.02,,,0.02,VWS V14.01,2013-05-17 09:46:00,
2013-05-17 04:51:00,61.6,59.6,29.83,NE,41,1.0,5.0,93,0.02,,,0.02,VWS V14.01,2013-05-17 09:51:00,
2013-05-17 04:56:00,61.4,59.7,29.84,NE,43,2.0,5.0,94,0.03,,,0.03,VWS V14.01,2013-05-17 09:56:00,
2013-05-17 05:00:00,61.4,60.0,29.85,NE,36,3.0,5.0,95,0.03,,-RA,0.03,VWS V14.01,2013-05-17 10:00:00,
2013-05-17 05:01:00,61.4,60.0,29.85,NNE,15,2.0,3.0,95,0.02,,,0.03,VWS V14.01,2013-05-17 10:01:00,
2013-05-17 05:06:00,61.5,60.1,29.86,NNW,335,3.0,8.0,95,0.02,,-RA,0.03,VWS V14.01,2013-05-17 10:06:00,
2013-05-17 05:11:00,61.4,60.0,29.86,NNE,15,3.0,13.0,95,0.03,,-RA,0.04,VWS V14.01,2013-05-17 10:11:00,
2013-05-17 05:16:00,61.3,59.9,29.85,ENE,63,3.0,13.0,95,0.04,,-RA,0.05,VWS V14.01,2013-05-17 10:16:00,
2013-05-17 05:21:00,61.2,60.0,29.85,NNE,27,2.0,13.0,96,0.04,,-RA,0.05,VWS V14.01,2013-05-17 10:21:00,
2013-05-17 05:26:00,61.1,59.7,29.86,NNE,23,3.0,13.0,95,0.04,,-RA,0.05,VWS V14.01,2013-05-17 10:26:00,
2013-05-17 05:30:00,61.1,59.7,29.86,NE,56,4.0,13.0,95,0.04,,-RA,0.05,VWS V14.01,2013-05-17 10:30:00,
2013-05-17 05:31:00,61.1,59.7,29.86,NE,49,3.0,4.0,95,0.03,,,0.05,VWS V14.01,2013-05-17 10:31:00,
2013-05-17 05:36:00,61.0,59.9,29.85,NE,47,4.0,6.0,96,0.04,,,0.06,VWS V14.01,2013-05-17 10:36:00,
2013-05-17 05:41:00,60.9,59.8,29.85,NE,43,4.0,7.0,96,0.04,,,0.06,VWS V14.01,2013-05-17 10:41:00,
2013-05-17 05:46:00,60.8,59.7,29.85,NE,47,4.0,7.0,96,0.04,,-RA,0.06,VWS V14.01,2013-05-17 10:46:00,
2013-05-17 05:51:00,60.7,59.3,29.85,ENE,70,3.0,7.0,95,0.04,,-RA,0.06,VWS V14.01,2013-05-17 10:51:00,
2013-05-17 05:56:00,60.6,59.2,29.84,ENE,65,5.0,9.0,95,0.04,,-RA,0.06,VWS V14.01,2013-05-17 10:56:00,
2013-05-17 06:00:00,60.6,59.2,29.84,ENE,70,4.0,9.0,95,0.04,,-RA,0.06,VWS V14.01,2013-05-17 11:00:00,
2013-05-17 06:01:00,60.6,59.2,29.84,ENE,62,4.0,4.0,95,0.03,,-RA,0.06,VWS V14.01,2013-05-17 11:01:00,
2013-05-17 06:06:00,60.5,59.1,29.84,ENE,66,6.0,8.0,95,0.03,,-RA,0.06,VWS V14.01,2013-05-17 11:06:00,
2013-05-17 06:11:00,60.3,58.9,29.84,ENE,70,3.0,9.0,95,0.03,,-RA,0.06,VWS V14.01,2013-05-17 11:11:00,
2013-05-17 06:16:00,60.2,58.5,29.84,ENE,66,4.0,10.0,94,0.03,,-RA,0.06,VWS V14.01,2013-05-17 11:16:00,
2013-05-17 06:21:00,60.1,58.1,29.84,East,79,4.0,10.0,93,0.03,,-RA,0.06,VWS V14.01,2013-05-17 11:21:00,
2013-05-17 06:26:00,60.0,58.0,29.84,ENE,70,4.0,10.0,93,0.03,,-RA,0.06,VWS V14.01,2013-05-17 11:26:00,
2013-05-17 06:30:00,60.0,58.0,29.84,ENE,74,7.0,12.0,93,0.03,,-RA,0.06,VWS V14.01,2013-05-17 11:30:00,
2013-05-17 06:31:00,60.0,58.0,29.84,ENE,65,9.0,9.0,93,0.01,,-RA,0.06,VWS V14.01,2013-05-17 11:31:00,
2013-05-17 06:36:00,59.9,57.9,29.84,ENE,64,5.0,9.0,93,0.01,,-RA,0.06,VWS V14.01,2013-05-17 11:36:00,
2013-05-17 06:41:00,59.8,57.8,29.84,ENE,76,5.0,9.0,93,0.01,,-RA,0.06,VWS V14.01,2013-05-17 11:41:00,
2013-05-17 06:46:00,59.8,57.8,29.84,NE,56,3.0,9.0,93,0.01,,-RA,0.06,VWS V14.01,2013-05-17 11:46:00,
2013-05-17 06:53:00,59.7,57.7,29.85,East,88,3.0,3.0,93,0.00,,-RA,0.06,VWS V14.01,2013-05-17 11:53:00,
2013-05-17 06:58:00,59.7,57.4,29.85,ESE,105,6.0,8.0,92,0.01,,-RA,0.06,VWS V14.01,2013-05-17 11:58:00,
2013-05-17 07:00:00,59.7,57.4,29.85,NE,47,4.0,8.0,92,0.01,,-RA,0.06,VWS V14.01,2013-05-17 12:00:00,
2013-05-17 07:03:00,59.6,57.3,29.85,East,97,8.0,9.0,92,0.00,,-RA,0.06,VWS V14.01,2013-05-17 12:03:00,
2013-05-17 07:08:00,59.5,57.2,29.85,ENE,65,10.0,13.0,92,0.00,,-RA,0.06,VWS V14.01,2013-05-17 12:08:00,
2013-05-17 07:13:00,59.4,57.1,29.85,ESE,111,5.0,13.0,92,0.00,,-RA,0.06,VWS V14.01,2013-05-17 12:13:00,
2013-05-17 07:18:00,59.3,57.3,29.85,East,84,4.0,13.0,93,0.00,,-RA,0.06,VWS V14.01,2013-05-17 12:18:00,
2013-05-17 07:23:00,59.1,56.8,29.85,East,96,11.0,13.0,92,0.00,,-RA,0.06,VWS V14.01,2013-05-17 12:23:00,
2013-05-17 07:28:00,59.0,56.7,29.85,East,92,5.0,14.0,92,0.00,,-RA,0.06,VWS V14.01,2013-05-17 12:28:00,
2013-05-17 07:30:00,58.9,56.9,29.85,NE,49,4.0,14.0,93,0.00,,-RA,0.06,VWS V14.01,2013-05-17 12:30:00,
2013-05-17 07:33:00,58.9,56.9,29.86,East,100,3.0,14.0,93,0.00,,-RA,0.06,VWS V14.01,2013-05-17 12:33:00,
2013-05-17 07:38:00,58.8,56.8,29.86,ESE,113,7.0,14.0,93,0.00,,-RA,0.06,VWS V14.01,2013-05-17 12:38:00,
2013-05-17 07:43:00,58.7,56.7,29.86,East,95,7.0,14.0,93,0.00,,-RA,0.06,VWS V14.01,2013-05-17 12:43:00,
2013-05-17 07:48:00,58.5,56.2,29.86,East,80,3.0,17.0,92,0.00,,-RA,0.06,VWS V14.01,2013-05-17 12:48:00,
2013-05-17 07:53:00,58.3,56.0,29.86,ENE,70,5.0,17.0,92,0.00,,OVC110,0.06,VWS V14.01,2013-05-17 12:53:00,
2013-05-17 07:58:00,58.0,55.7,29.86,SE,142,4.0,17.0,92,0.00,,OVC110,0.06,VWS V14.01,2013-05-17 12:58:00,
2013-05-17 08:00:00,57.9,55.6,29.86,East,82,14.0,17.0,92,0.00,,-RA,0.06,VWS V14.01,2013-05-17 13:00:00,
2013-05-17 08:03:00,57.9,55.6,29.86,ESE,107,14.0,17.0,92,0.00,,OVC110,0.06,VWS V14.01,2013-05-17 13:03:00,
2013-05-17 08:08:00,57.6,55.3,29.87,ENE,68,7.0,21.0,92,0.00,,OVC100,0.06,VWS V14.01,2013-05-17 13:08:00,
2013-05-17 08:13:00,57.4,55.1,29.85,ESE,107,14.0,21.0,92,0.00,,OVC100,0.06,VWS V14.01,2013-05-17 13:13:00,
2013-05-17 08:18:00,57.2,54.9,29.85,ESE,105,12.0,21.0,92,0.00,,OVC100,0.06,VWS V14.01,2013-05-17 13:18:00,
2013-05-17 08:23:00,57.1,54.8,29.86,East,82,6.0,21.0,92,0.00,,OVC100,0.06,VWS V14.01,2013-05-17 13:23:00,
2013-05-17 08:28:00,57.0,54.7,29.87,ENE,76,2.0,21.0,92,0.00,,OVC100,0.06,VWS V14.01,2013-05-17 13:28:00,
2013-05-17 08:30:00,57.0,54.7,29.86,East,97,2.0,21.0,92,0.00,,-RA,0.06,VWS V14.01,2013-05-17 13:30:00,
2013-05-17 08:33:00,57.0,54.7,29.87,ENE,65,2.0,8.0,92,0.00,,OVC100,0.06,VWS V14.01,2013-05-17 13:33:00,
2013-05-17 08:38:00,56.8,54.5,29.87,East,79,3.0,8.0,92,0.00,,OVC100,0.06,VWS V14.01,2013-05-17 13:38:00,
2013-05-17 08:43:00,56.8,54.8,29.87,ENE,62,3.0,9.0,93,0.00,,OVC100,0.06,VWS V14.01,2013-05-17 13:43:00,
2013-05-17 08:48:00,56.8,54.5,29.87,ENE,67,3.0,11.0,92,0.00,,OVC100,0.06,VWS V14.01,2013-05-17 13:48:00,
2013-05-17 08:53:00,56.7,54.4,29.87,ENE,72,2.0,11.0,92,0.00,,OVC100,0.06,VWS V14.01,2013-05-17 13:53:00,
2013-05-17 08:58:00,56.7,54.4,29.87,East,85,4.0,11.0,92,0.00,,OVC100,0.06,VWS V14.01,2013-05-17 13:58:00,
2013-05-17 09:00:00,56.8,54.5,29.87,East,96,3.0,11.0,92,0.00,,-RA,0.06,VWS V14.01,2013-05-17 14:00:00,
2013-05-17 09:03:00,56.9,54.9,29.87,East,98,5.0,6.0,93,0.00,,-RA,0.06,VWS V14.01,2013-05-17 14:03:00,
2013-05-17 09:08:00,57.0,54.4,29.88,ESE,116,5.0,11.0,91,0.00,,-RA,0.06,VWS V14.01,2013-05-17 14:08:00,
2013-05-17 09:13:00,57.2,54.9,29.87,ESE,123,4.0,11.0,92,0.00,,-RA,0.06,VWS V14.01,2013-05-17 14:13:00,
2013-05-17 09:18:00,57.4,54.5,29.87,ENE,78,3.0,11.0,90,0.00,,-RA,0.06,VWS V14.01,2013-05-17 14:18:00,
2013-05-17 09:23:00,57.6,54.4,29.87,East,85,12.0,12.0,89,0.00,,-RA,0.06,VWS V14.01,2013-05-17 14:23:00,
2013-05-17 09:28:00,57.6,54.1,29.87,ESE,108,9.0,17.0,88,0.00,,-RA,0.06,VWS V14.01,2013-05-17 14:28:00,
2013-05-17 09:30:00,57.6,54.4,29.87,NE,51,7.0,20.0,89,0.00,,-RA,0.06,VWS V14.01,2013-05-17 14:30:00,
2013-05-17 09:33:00,57.7,54.5,29.86,ESE,118,9.0,13.0,89,0.00,,-RA,0.06,VWS V14.01,2013-05-17 14:33:00,
2013-05-17 09:38:00,57.6,54.4,29.87,ENE,71,7.0,17.0,89,0.00,,-RA,0.06,VWS V14.01,2013-05-17 14:38:00,
2013-05-17 09:43:00,57.7,54.8,29.86,SE,124,5.0,17.0,90,0.00,,-RA,0.06,VWS V14.01,2013-05-17 14:43:00,
2013-05-17 09:48:00,58.1,55.2,29.86,East,89,6.0,17.0,90,0.00,,-RA,0.06,VWS V14.01,2013-05-17 14:48:00,
2013-05-17 09:53:00,58.4,55.2,29.87,ESE,107,17.0,19.0,89,0.00,,-RA,0.06,VWS V14.01,2013-05-17 14:53:00,
2013-05-17 09:58:00,58.6,55.1,29.86,ESE,107,16.0,21.0,88,0.00,,-RA,0.06,VWS V14.01,2013-05-17 14:58:00,
2013-05-17 10:00:00,58.7,55.2,29.86,ESE,117,15.0,21.0,88,0.00,,-RA,0.06,VWS V14.01,2013-05-17 15:00:00,
2013-05-17 10:03:00,58.9,55.7,29.86,East,91,7.0,17.0,89,0.00,,BKN100,0.06,VWS V14.01,2013-05-17 15:03:00,
2013-05-17 10:08:00,59.1,54.9,29.87,ESE,103,9.0,17.0,86,0.00,,BKN100,0.06,VWS V14.01,2013-05-17 15:08:00,
2013-05-17 10:13:00,59.6,55.4,29.87,ENE,75,9.0,17.0,86,0.00,,BKN100,0.06,VWS V14.01,2013-05-17 15:13:00,
2013-05-17 10:18:00,59.8,55.6,29.87,East,80,5.0,17.0,86,0.00,,BKN100,0.06,VWS V14.01,2013-05-17 15:18:00,
2013-05-17 10:23:00,59.8,55.6,29.87,East,92,8.0,17.0,86,0.00,,BKN100,0.06,VWS V14.01,2013-05-17 15:23:00,
2013-05-17 10:28:00,60.0,56.1,29.87,East,98,10.0,17.0,87,0.00,,BKN100,0.06,VWS V14.01,2013-05-17 15:28:00,
2013-05-17 10:30:00,60.1,55.9,29.88,East,98,15.0,17.0,86,0.00,,-RA,0.06,VWS V14.01,2013-05-17 15:30:00,
2013-05-17 10:33:00,60.1,56.2,29.88,ESE,112,10.0,15.0,87,0.00,,BKN014,0.06,VWS V14.01,2013-05-17 15:33:00,
2013-05-17 10:38:00,60.5,56.3,29.88,East,87,7.0,15.0,86,0.00,,BKN014,0.06,VWS V14.01,2013-05-17 15:38:00,
2013-05-17 10:42:00,60.5,56.6,29.87,ESE,110,9.0,17.0,87,0.00,,BKN014,0.06,VWS V14.01,2013-05-17 15:42:00,
2013-05-17 10:47:00,61.0,57.1,29.87,East,101,8.0,17.0,87,0.00,,BKN014,0.06,VWS V14.01,2013-05-17 15:47:00,
2013-05-17 10:52:00,61.3,57.1,29.87,ESE,106,12.0,17.0,86,0.00,,BKN014,0.06,VWS V14.01,2013-05-17 15:52:00,
2013-05-17 10:57:00,61.3,57.7,29.87,ENE,69,5.0,17.0,88,0.00,,BKN014,0.06,VWS V14.01,2013-05-17 15:57:00,
2013-05-17 11:00:00,61.2,56.7,29.87,ESE,108,11.0,17.0,85,0.00,,-RA,0.06,VWS V14.01,2013-05-17 16:00:00,
2013-05-17 11:02:00,61.2,57.0,29.87,ESE,119,8.0,14.0,86,0.00,,OVC014,0.06,VWS V14.01,2013-05-17 16:02:00,
2013-05-17 11:07:00,61.6,58.0,29.87,ESE,119,11.0,15.0,88,0.00,,OVC014,0.06,VWS V14.01,2013-05-17 16:07:00,
2013-05-17 11:12:00,61.7,57.5,29.87,East,90,6.0,15.0,86,0.00,,OVC014,0.06,VWS V14.01,2013-05-17 16:12:00,
2013-05-17 11:17:00,61.6,57.7,29.87,SE,124,14.0,15.0,87,0.00,,OVC014,0.06,VWS V14.01,2013-05-17 16:17:00,
2013-05-17 11:22:00,61.3,57.4,29.87,ENE,73,8.0,17.0,87,0.00,,OVC014,0.06,VWS V14.01,2013-05-17 16:22:00,
2013-05-17 11:27:00,61.3,57.4,29.87,ESE,110,11.0,17.0,87,0.00,,OVC014,0.06,VWS V14.01,2013-05-17 16:27:00,
2013-05-17 11:30:00,61.3,57.7,29.87,ESE,108,10.0,17.0,88,0.00,,-RA,0.06,VWS V14.01,2013-05-17 16:30:00,
2013-05-17 11:32:00,61.3,57.7,29.88,ESE,111,12.0,13.0,88,0.00,,OVC014,0.06,VWS V14.01,2013-05-17 16:32:00,
2013-05-17 11:37:00,61.4,58.1,29.88,ESE,118,10.0,13.0,89,0.00,,OVC014,0.06,VWS V14.01,2013-05-17 16:37:00,
2013-05-17 11:42:00,61.7,58.7,29.88,ESE,106,11.0,13.0,90,0.00,,OVC014,0.06,VWS V14.01,2013-05-17 16:42:00,
2013-05-17 11:47:00,61.9,58.9,29.88,ESE,121,12.0,14.0,90,0.00,,OVC014,0.06,VWS V14.01,2013-05-17 16:47:00,
2013-05-17 11:52:00,62.3,59.3,29.88,ESE,121,12.0,14.0,90,0.00,,OVC014,0.06,VWS V14.01,2013-05-17 16:52:00,
2013-05-17 11:57:00,62.9,60.2,29.87,ESE,121,7.0,14.0,91,0.00,,OVC014,0.06,VWS V14.01,2013-05-17 16:57:00,
2013-05-17 12:00:00,63.1,59.8,29.87,ESE,118,9.0,14.0,89,0.00,,-RA,0.06,VWS V14.01,2013-05-17 17:00:00,
2013-05-17 12:02:00,63.3,60.0,29.87,East,87,8.0,13.0,89,0.00,,OVC012,0.06,VWS V14.01,2013-05-17 17:02:00,
2013-05-17 12:07:00,63.8,60.5,29.87,ESE,107,10.0,14.0,89,0.00,,OVC012,0.06,VWS V14.01,2013-05-17 17:07:00,
2013-05-17 12:12:00,64.9,61.6,29.87,SE,134,10.0,14.0,89,0.00,,OVC012,0.06,VWS V14.01,2013-05-17 17:12:00,
2013-05-17 12:17:00,66.0,63.0,29.87,SE,131,10.0,15.0,90,0.00,,OVC012,0.06,VWS V14.01,2013-05-17 17:17:00,
2013-05-17 12:23:00,66.6,62.0,29.87,ESE,119,11.0,15.0,85,0.00,,OVC012,0.06,VWS V14.01,2013-05-17 17:23:00,
2013-05-17 12:28:00,66.6,62.0,29.87,East,83,10.0,15.0,85,0.00,,OVC012,0.06,VWS V14.01,2013-05-17 17:28:00,
2013-05-17 12:30:00,66.6,62.6,29.87,ESE,102,10.0,15.0,87,0.00,,-RA,0.06,VWS V14.01,2013-05-17 17:30:00,
2013-05-17 12:33:00,66.8,63.1,29.88,ESE,107,8.0,13.0,88,0.00,,OVC012,0.06,VWS V14.01,2013-05-17 17:33:00,
2013-05-17 12:38:00,67.1,62.8,29.88,ESE,123,8.0,13.0,86,0.00,,OVC012,0.06,VWS V14.01,2013-05-17 17:38:00,
2013-05-17 12:43:00,67.3,62.0,29.88,ESE,123,6.0,13.0,83,0.00,,OVC012,0.06,VWS V14.01,2013-05-17 17:43:00,
2013-05-17 12:48:00,67.6,62.6,29.88,ESE,117,6.0,13.0,84,0.00,,OVC012,0.06,VWS V14.01,2013-05-17 17:48:00,
2013-05-17 12:53:00,67.8,62.1,29.88,ESE,103,4.0,13.0,82,0.00,,OVC055,0.06,VWS V14.01,2013-05-17 17:53:00,
2013-05-17 12:58:00,67.8,62.1,29.88,ESE,109,7.0,13.0,82,0.00,,OVC055,0.06,VWS V14.01,2013-05-17 17:58:00,
2013-05-17 13:00:00,67.8,61.8,29.88,SE,146,3.0,13.0,81,0.00,,-RA,0.06,VWS V14.01,2013-05-17 18:00:00,
2013-05-17 13:03:00,67.9,62.2,29.87,ESE,107,4.0,5.0,82,0.00,,OVC055,0.06,VWS V14.01,2013-05-17 18:03:00,
2013-05-17 13:08:00,68.1,61.3,29.87,ESE,105,7.0,8.0,79,0.00,,OVC055,0.06,VWS V14.01,2013-05-17 18:08:00,
2013-05-17 13:13:00,68.4,62.3,29.86,ESE,113,9.0,9.0,81,0.00,,OVC047,0.06,VWS V14.01,2013-05-17 18:13:00,
2013-05-17 13:18:00,68.2,62.8,29.86,East,86,5.0,12.0,83,0.02,,OVC047,0.08,VWS V14.01,2013-05-17 18:18:00,
2013-05-17 13:22:00,67.5,62.5,29.86,East,101,2.0,12.0,84,0.03,,OVC047,0.09,VWS V14.01,2013-05-17 18:22:00,
2013-05-17 13:28:00,67.2,62.9,29.86,NE,56,2.0,12.0,86,0.04,,OVC047,0.10,VWS V14.01,2013-05-17 18:28:00,
2013-05-17 13:30:00,67.4,63.1,29.86,East,82,6.0,12.0,86,0.04,,-RA,0.10,VWS V14.01,2013-05-17 18:30:00,
2013-05-17 13:33:00,67.5,63.2,29.86,East,82,2.0,6.0,86,0.04,,OVC047,0.10,VWS V14.01,2013-05-17 18:33:00,
2013-05-17 13:38:00,68.1,63.8,29.85,ENE,72,4.0,8.0,86,0.04,,OVC047,0.10,VWS V14.01,2013-05-17 18:38:00,
2013-05-17 13:43:00,69.0,64.0,29.85,East,90,4.0,8.0,84,0.04,,-RA,0.10,VWS V14.01,2013-05-17 18:43:00,
2013-05-17 13:48:00,69.7,64.0,29.85,ENE,68,2.0,9.0,82,0.04,,-RA,0.10,VWS V14.01,2013-05-17 18:48:00,
2013-05-17 13:53:00,70.2,64.1,29.85,ENE,72,4.0,9.0,81,0.04,,-RA,0.10,VWS V14.01,2013-05-17 18:53:00,
2013-05-17 13:58:00,70.8,64.0,29.85,ENE,74,4.0,9.0,79,0.04,,-RA,0.10,VWS V14.01,2013-05-17 18:58:00,
2013-05-17 14:00:00,71.3,64.8,29.85,ENE,71,4.0,9.0,80,0.04,,-RA,0.10,VWS V14.01,2013-05-17 19:00:00,
2013-05-17 14:03:00,71.6,65.1,29.85,ENE,58,3.0,5.0,80,0.04,,-RA,0.10,VWS V14.01,2013-05-17 19:03:00,
2013-05-17 14:08:00,72.2,64.6,29.85,ENE,63,2.0,5.0,77,0.04,,-RA,0.10,VWS V14.01,2013-05-17 19:08:00,
2013-05-17 14:13:00,72.7,64.3,29.85,ENE,63,2.0,8.0,75,0.04,,-RA,0.10,VWS V14.01,2013-05-17 19:13:00,
2013-05-17 14:18:00,72.6,64.6,29.85,ENE,71,2.0,8.0,76,0.04,,-RA,0.10,VWS V14.01,2013-05-17 19:18:00,
2013-05-17 14:23:00,71.9,63.2,29.86,SSE,155,8.0,8.0,74,0.04,,BKN100,0.10,VWS V14.01,2013-05-17 19:23:00,
2013-05-17 14:28:00,70.7,64.9,29.87,SW,236,10.0,13.0,82,0.04,,BKN100,0.10,VWS V14.01,2013-05-17 19:28:00,
2013-05-17 14:30:00,68.9,63.9,29.87,SW,236,7.0,13.0,84,0.10,,-RA,0.16,VWS V14.01,2013-05-17 19:30:00,
2013-05-17 14:33:00,68.0,64.0,29.87,WNW,295,3.0,11.0,87,0.11,,BKN100,0.21,VWS V14.01,2013-05-17 19:33:00,
2013-05-17 14:38:00,66.7,62.4,29.87,SSE,148,4.0,11.0,86,0.25,,BKN100,0.35,VWS V14.01,2013-05-17 19:38:00,
2013-05-17 14:43:00,66.3,63.0,29.86,ENE,67,2.0,11.0,89,0.38,,BKN100,0.48,VWS V14.01,2013-05-17 19:43:00,
2013-05-17 14:48:00,65.9,63.5,29.86,ENE,75,1.0,11.0,92,0.45,,BKN100,0.55,VWS V14.01,2013-05-17 19:48:00,
2013-05-17 14:53:00,65.9,64.1,29.86,ENE,77,2.0,11.0,94,0.45,,BKN100,0.55,VWS V14.01,2013-05-17 19:53:00,
2013-05-17 14:58:00,65.9,64.1,29.86,ENE,77,3.0,11.0,94,0.45,,BKN100,0.55,VWS V14.01,2013-05-17 19:58:00,
2013-05-17 15:00:00,65.7,63.6,29.86,East,85,1.0,11.0,93,0.45,,-RA,0.55,VWS V14.01,2013-05-17 20:00:00,
2013-05-17 15:03:00,65.7,63.6,29.86,ESE,106,5.0,6.0,93,0.45,,-RA,0.55,VWS V14.01,2013-05-17 20:03:00,
2013-05-17 15:08:00,65.9,64.1,29.86,ENE,78,4.0,6.0,94,0.45,,-RA,0.55,VWS V14.01,2013-05-17 20:08:00,
2013-05-17 15:15:00,66.1,63.1,29.86,East,79,2.0,2.0,90,0.00,,-RA,0.56,VWS V14.01,2013-05-17 20:15:00,
2013-05-17 15:20:00,65.9,62.9,29.85,ENE,73,3.0,5.0,90,0.46,,-RA,0.56,VWS V14.01,2013-05-17 20:20:00,
2013-05-17 15:25:00,65.8,62.5,29.85,East,96,1.0,5.0,89,0.46,,-RA,0.56,VWS V14.01,2013-05-17 20:25:00,
2013-05-17 15:30:00,65.7,62.7,29.85,ENE,70,1.0,5.0,90,0.46,,-RA,0.56,VWS V14.01,2013-05-17 20:30:00,
2013-05-17 15:35:00,65.8,62.8,29.85,NE,51,2.0,3.0,90,0.40,,-RA,0.56,VWS V14.01,2013-05-17 20:35:00,
2013-05-17 15:40:00,65.7,62.7,29.84,ENE,63,1.0,4.0,90,0.40,,-RA,0.56,VWS V14.01,2013-05-17 20:40:00,
2013-05-17 15:45:00,65.6,62.6,29.85,ENE,67,2.0,4.0,90,0.40,,-RA,0.56,VWS V14.01,2013-05-17 20:45:00,
2013-05-17 15:50:00,65.6,62.6,29.84,ENE,64,6.0,8.0,90,0.40,,-RA,0.56,VWS V14.01,2013-05-17 20:50:00,
2013-05-17 15:55:00,65.9,63.2,29.84,ENE,73,1.0,8.0,91,0.40,,-RA,0.56,VWS V14.01,2013-05-17 20:55:00,
2013-05-17 16:00:00,66.2,63.5,29.84,ESE,120,2.0,8.0,91,0.40,,-RA,0.56,VWS V14.01,2013-05-17 21:00:00,
2013-05-17 16:05:00,66.5,63.8,29.85,ESE,102,7.0,7.0,91,0.01,,FEW100,0.56,VWS V14.01,2013-05-17 21:05:00,
2013-05-17 16:10:00,66.7,63.7,29.85,East,82,1.0,8.0,90,0.01,,FEW100,0.56,VWS V14.01,2013-05-17 21:10:00,
2013-05-17 16:15:00,66.8,64.1,29.84,East,81,3.0,8.0,91,0.01,,FEW100,0.56,VWS V14.01,2013-05-17 21:15:00,
2013-05-17 16:20:00,66.9,64.2,29.84,East,84,2.0,8.0,91,0.01,,FEW100,0.56,VWS V14.01,2013-05-17 21:20:00,
2013-05-17 16:25:00,67.1,64.4,29.84,East,98,2.0,8.0,91,0.01,,FEW100,0.56,VWS V14.01,2013-05-17 21:25:00,
2013-05-17 16:30:00,67.3,64.9,29.84,ESE,107,4.0,8.0,92,0.01,,FEW100,0.56,VWS V14.01,2013-05-17 21:30:00,
2013-05-17 16:35:00,67.4,64.7,29.84,East,82,1.0,6.0,91,0.00,,FEW100,0.56,VWS V14.01,2013-05-17 21:35:00,
2013-05-17 16:40:00,67.7,65.3,29.83,ENE,71,2.0,6.0,92,0.00,,FEW100,0.56,VWS V14.01,2013-05-17 21:40:00,
2013-05-17 16:45:00,68.0,65.3,29.83,East,87,4.0,6.0,91,0.00,,FEW100,0.56,VWS V14.01,2013-05-17 21:45:00,
2013-05-17 16:50:00,68.2,65.5,29.83,ENE,59,2.0,7.0,91,0.00,,FEW100,0.56,VWS V14.01,2013-05-17 21:50:00,
2013-05-17 16:55:00,68.3,65.3,29.84,ENE,69,3.0,7.0,90,0.00,,FEW100,0.56,VWS V14.01,2013-05-17 21:55:00,
2013-05-17 17:00:00,68.4,65.4,29.84,ENE,71,2.0,9.0,90,0.00,,FEW100,0.56,VWS V14.01,2013-05-17 22:00:00,
2013-05-17 17:05:00,68.3,64.9,29.84,East,85,2.0,6.0,89,0.00,,FEW110,0.56,VWS V14.01,2013-05-17 22:05:00,
2013-05-17 17:10:00,68.5,64.8,29.84,East,98,2.0,7.0,88,0.00,,FEW110,0.56,VWS V14.01,2013-05-17 22:10:00,
2013-05-17 17:15:00,68.7,65.0,29.83,East,94,2.0,8.0,88,0.00,,FEW110,0.56,VWS V14.01,2013-05-17 22:15:00,
2013-05-17 17:20:00,68.7,64.3,29.84,ENE,61,1.0,8.0,86,0.00,,FEW110,0.56,VWS V14.01,2013-05-17 22:20:00,
2013-05-17 17:25:00,68.7,64.7,29.84,East,85,1.0,8.0,87,0.00,,FEW110,0.56,VWS V14.01,2013-05-17 22:25:00,
2013-05-17 17:30:00,68.6,64.6,29.84,ENE,57,2.0,8.0,87,0.00,,FEW110,0.56,VWS V14.01,2013-05-17 22:30:00,
2013-05-17 17:35:00,68.6,64.6,29.84,ENE,73,3.0,4.0,87,0.00,,FEW110,0.56,VWS V14.01,2013-05-17 22:35:00,
2013-05-17 17:40:00,68.6,64.6,29.84,East,87,1.0,6.0,87,0.00,,FEW110,0.56,VWS V14.01,2013-05-17 22:40:00,
2013-05-17 17:45:00,68.6,64.6,29.84,East,87,1.0,7.0,87,0.00,,FEW110,0.56,VWS V14.01,2013-05-17 22:45:00,
2013-05-17 17:50:00,68.6,64.6,29.83,East,82,3.0,7.0,87,0.00,,FEW110,0.56,VWS V14.01,2013-05-17 22:50:00,
2013-05-17 17:55:00,68.7,64.3,29.83,SE,136,4.0,7.0,86,0.00,,FEW110,0.56,VWS V14.01,2013-05-17 22:55:00,
2013-05-17 18:00:00,68.7,64.3,29.84,ENE,61,1.0,7.0,86,0.00,,CLR,0.56,VWS V14.01,2013-05-17 23:00:00,
2013-05-17 18:05:00,68.8,64.1,29.84,ESE,107,5.0,7.0,85,0.00,,CLR,0.56,VWS V14.01,2013-05-17 23:05:00,
2013-05-17 18:10:00,68.9,64.6,29.84,East,90,4.0,7.0,86,0.00,,CLR,0.56,VWS V14.01,2013-05-17 23:10:00,
2013-05-17 18:15:00,68.9,64.6,29.84,East,81,1.0,7.0,86,0.00,,CLR,0.56,VWS V14.01,2013-05-17 23:15:00,
2013-05-17 18:20:00,68.9,64.2,29.83,ENE,61,2.0,7.0,85,0.00,,CLR,0.56,VWS V14.01,2013-05-17 23:20:00,
2013-05-17 18:25:00,68.9,63.9,29.83,East,83,1.0,7.0,84,0.00,,CLR,0.56,VWS V14.01,2013-05-17 23:25:00,
2013-05-17 18:30:00,68.9,64.2,29.83,ENE,75,1.0,7.0,85,0.00,,CLR,0.56,VWS V14.01,2013-05-17 23:30:00,
2013-05-17 18:35:00,68.8,64.1,29.84,ENE,61,1.0,2.0,85,0.00,,CLR,0.56,VWS V14.01,2013-05-17 23:35:00,
2013-05-17 18:40:00,68.7,64.3,29.84,ENE,61,0.0,2.0,86,0.00,,CLR,0.56,VWS V14.01,2013-05-17 23:40:00,
2013-05-17 18:45:00,68.7,64.3,29.84,ENE,78,1.0,2.0,86,0.00,,CLR,0.56,VWS V14.01,2013-05-17 23:45:00,
2013-05-17 18:50:00,68.7,64.7,29.84,East,81,3.0,5.0,87,0.00,,CLR,0.56,VWS V14.01,2013-05-17 23:50:00,
2013-05-17 18:55:00,68.7,65.0,29.84,ENE,77,1.0,5.0,88,0.00,,CLR,0.56,VWS V14.01,2013-05-17 23:55:00,
2013-05-17 19:00:00,68.6,64.9,29.84,East,81,1.0,5.0,88,0.00,,CLR,0.56,VWS V14.01,2013-05-18 00:00:00,
2013-05-17 19:05:00,68.6,64.9,29.84,ESE,121,3.0,5.0,88,0.00,,CLR,0.56,VWS V14.01,2013-05-18 00:05:00,
2013-05-17 19:10:00,68.5,65.1,29.84,ENE,74,0.0,5.0,89,0.00,,CLR,0.56,VWS V14.01,2013-05-18 00:10:00,
2013-05-17 19:15:00,68.4,65.0,29.84,ENE,73,1.0,5.0,89,0.00,,CLR,0.56,VWS V14.01,2013-05-18 00:15:00,
2013-05-17 19:20:00,68.3,64.9,29.84,ESE,103,2.0,9.0,89,0.00,,CLR,0.56,VWS V14.01,2013-05-18 00:20:00,
2013-05-17 19:25:00,68.2,65.2,29.84,East,87,2.0,9.0,90,0.00,,CLR,0.56,VWS V14.01,2013-05-18 00:25:00,
2013-05-17 19:30:00,68.1,65.1,29.84,East,93,3.0,9.0,90,0.00,,CLR,0.56,VWS V14.01,2013-05-18 00:30:00,
2013-05-17 19:35:00,68.0,65.0,29.84,ENE,71,3.0,8.0,90,0.00,,CLR,0.56,VWS V14.01,2013-05-18 00:35:00,
2013-05-17 19:40:00,67.9,64.9,29.84,East,84,3.0,8.0,90,0.00,,CLR,0.56,VWS V14.01,2013-05-18 00:40:00,
2013-05-17 19:45:00,67.8,64.8,29.84,East,91,0.0,8.0,90,0.00,,CLR,0.56,VWS V14.01,2013-05-18 00:45:00,
2013-05-17 19:50:00,67.7,64.7,29.84,ENE,72,0.0,8.0,90,0.00,,CLR,0.56,VWS V14.01,2013-05-18 00:50:00,
2013-05-17 19:55:00,67.6,64.6,29.85,East,84,1.0,8.0,90,0.00,,CLR,0.56,VWS V14.01,2013-05-18 00:55:00,
2013-05-17 20:00:00,67.5,64.5,29.85,ESE,108,2.0,8.0,90,0.00,,CLR,0.56,VWS V14.01,2013-05-18 01:00:00,
2013-05-17 20:05:00,67.4,64.1,29.85,ENE,70,2.0,3.0,89,0.00,,CLR,0.56,VWS V14.01,2013-05-18 01:05:00,
2013-05-17 20:10:00,67.3,64.0,29.84,East,86,0.0,3.0,89,0.00,,CLR,0.56,VWS V14.01,2013-05-18 01:10:00,
2013-05-17 20:15:00,67.1,63.8,29.84,East,84,1.0,4.0,89,0.00,,CLR,0.56,VWS V14.01,2013-05-18 01:15:00,
2013-05-17 20:20:00,67.0,63.7,29.84,East,90,2.0,5.0,89,0.00,,CLR,0.56,VWS V14.01,2013-05-18 01:20:00,
2013-05-17 20:25:00,66.9,63.6,29.84,ENE,68,1.0,5.0,89,0.00,,CLR,0.56,VWS V14.01,2013-05-18 01:25:00,
2013-05-17 20:30:00,66.8,63.5,29.83,ENE,74,1.0,5.0,89,0.00,,CLR,0.56,VWS V14.01,2013-05-18 01:30:00,
2013-05-17 20:35:00,66.7,63.7,29.83,ENE,77,1.0,2.0,90,0.00,,CLR,0.56,VWS V14.01,2013-05-18 01:35:00,
2013-05-17 20:40:00,66.6,63.6,29.83,ENE,77,3.0,8.0,90,0.00,,CLR,0.56,VWS V14.01,2013-05-18 01:40:00,
2013-05-17 20:45:00,66.5,63.5,29.83,East,87,3.0,8.0,90,0.00,,CLR,0.56,VWS V14.01,2013-05-18 01:45:00,
2013-05-17 20:50:00,66.3,63.3,29.82,ENE,74,4.0,8.0,90,0.00,,CLR,0.56,VWS V14.01,2013-05-18 01:50:00,
2013-05-17 20:55:00,66.3,63.3,29.82,ENE,77,4.0,8.0,90,0.00,,CLR,0.56,VWS V14.01,2013-05-18 01:55:00,
2013-05-17 21:00:00,66.3,63.3,29.82,East,93,4.0,8.0,90,0.00,,CLR,0.56,VWS V14.01,2013-05-18 02:00:00,
2013-05-17 21:05:00,66.3,63.3,29.82,ESE,103,3.0,9.0,90,0.00,,CLR,0.56,VWS V14.01,2013-05-18 02:05:00,
2013-05-17 21:10:00,66.3,63.3,29.82,East,87,3.0,9.0,90,0.00,,CLR,0.56,VWS V14.01,2013-05-18 02:10:00,
2013-05-17 21:15:00,66.4,63.1,29.83,ESE,105,4.0,9.0,89,0.00,,CLR,0.56,VWS V14.01,2013-05-18 02:15:00,
2013-05-17 21:20:00,66.6,63.3,29.83,ESE,120,6.0,11.0,89,0.00,,CLR,0.56,VWS V14.01,2013-05-18 02:20:00,
2013-05-17 21:25:00,66.6,63.3,29.84,East,82,0.0,11.0,89,0.00,,CLR,0.56,VWS V14.01,2013-05-18 02:25:00,
2013-05-17 21:30:00,66.6,63.3,29.84,East,79,0.0,11.0,89,0.00,,CLR,0.56,VWS V14.01,2013-05-18 02:30:00,
2013-05-17 21:35:00,66.4,63.1,29.85,SE,125,1.0,2.0,89,0.00,,CLR,0.56,VWS V14.01,2013-05-18 02:35:00,
2013-05-17 21:40:00,66.4,63.1,29.85,ESE,118,3.0,4.0,89,0.00,,CLR,0.56,VWS V14.01,2013-05-18 02:40:00,
2013-05-17 21:45:00,66.3,63.0,29.85,East,98,2.0,4.0,89,0.00,,CLR,0.56,VWS V14.01,2013-05-18 02:45:00,
2013-05-17 21:50:00,66.2,62.9,29.85,East,96,3.0,4.0,89,0.00,,CLR,0.56,VWS V14.01,2013-05-18 02:50:00,
2013-05-17 21:55:00,66.2,62.9,29.86,East,92,2.0,4.0,89,0.00,,CLR,0.56,VWS V14.01,2013-05-18 02:55:00,
2013-05-17 22:00:00,66.3,62.6,29.86,East,94,3.0,4.0,88,0.00,,CLR,0.56,VWS V14.01,2013-05-18 03:00:00,
2013-05-17 22:05:00,66.5,62.8,29.87,East,79,0.0,3.0,88,0.00,,FEW049,0.56,VWS V14.01,2013-05-18 03:05:00,
2013-05-17 22:10:00,66.3,62.6,29.88,East,93,0.0,3.0,88,0.00,,FEW049,0.56,VWS V14.01,2013-05-18 03:10:00,
2013-05-17 22:15:00,65.9,62.6,29.88,East,94,0.0,3.0,89,0.00,,FEW049,0.56,VWS V14.01,2013-05-18 03:15:00,
2013-05-17 22:20:00,65.5,62.5,29.88,East,88,0.0,3.0,90,0.00,,FEW049,0.56,VWS V14.01,2013-05-18 03:20:00,
2013-05-17 22:25:00,65.2,62.2,29.88,East,87,0.0,3.0,90,0.00,,FEW049,0.56,VWS V14.01,2013-05-18 03:25:00,
2013-05-17 22:30:00,65.1,62.4,29.88,East,98,1.0,3.0,91,0.00,,FEW049,0.56,VWS V14.01,2013-05-18 03:30:00,
2013-05-17 22:35:00,65.3,62.3,29.88,East,93,1.0,3.0,90,0.00,,FEW049,0.56,VWS V14.01,2013-05-18 03:35:00,
2013-05-17 22:40:00,65.5,62.2,29.88,ESE,106,0.0,3.0,89,0.00,,FEW049,0.56,VWS V14.01,2013-05-18 03:40:00,
2013-05-17 22:45:00,65.4,62.1,29.89,East,91,0.0,3.0,89,0.00,,FEW049,0.56,VWS V14.01,2013-05-18 03:45:00,
2013-05-17 22:50:00,65.2,61.9,29.89,East,98,0.0,3.0,89,0.00,,FEW049,0.56,VWS V14.01,2013-05-18 03:50:00,
2013-05-17 22:55:00,65.0,62.0,29.89,East,101,0.0,3.0,90,0.00,,FEW049,0.56,VWS V14.01,2013-05-18 03:55:00,
2013-05-17 23:00:00,64.9,61.9,29.89,ENE,75,1.0,4.0,90,0.00,,FEW049,0.56,VWS V14.01,2013-05-18 04:00:00,
2013-05-17 23:01:00,64.9,61.9,29.89,ENE,72,1.0,4.0,90,0.00,,FEW049,0.56,VWS V14.01,2013-05-18 04:01:00,
2013-05-17 23:06:00,64.8,61.8,29.89,ENE,75,3.0,3.0,90,0.00,,FEW065,0.56,VWS V14.01,2013-05-18 04:06:00,
2013-05-17 23:11:00,64.7,62.0,29.89,ENE,65,5.0,6.0,91,0.00,,FEW065,0.56,VWS V14.01,2013-05-18 04:11:00,
2013-05-17 23:16:00,64.8,61.8,29.89,ESE,112,2.0,6.0,90,0.00,,FEW065,0.56,VWS V14.01,2013-05-18 04:16:00,
2013-05-17 23:21:00,64.9,61.6,29.90,East,91,1.0,6.0,89,0.00,,FEW065,0.56,VWS V14.01,2013-05-18 04:21:00,
2013-05-17 23:26:00,64.9,61.6,29.90,ESE,113,3.0,6.0,89,0.00,,FEW065,0.56,VWS V14.01,2013-05-18 04:26:00,
2013-05-17 23:31:00,65.0,61.0,29.90,ESE,108,7.0,7.0,87,0.00,,FEW065,0.56,VWS V14.01,2013-05-18 04:31:00,
2013-05-17 23:36:00,65.3,61.0,29.89,East,101,7.0,10.0,86,0.00,,FEW065,0.56,VWS V14.01,2013-05-18 04:36:00,
2013-05-17 23:41:00,65.9,60.9,29.89,ESE,115,12.0,12.0,84,0.00,,FEW065,0.56,VWS V14.01,2013-05-18 04:41:00,
2013-05-17 23:46:00,66.1,60.8,29.89,ESE,118,9.0,12.0,83,0.00,,FEW065,0.56,VWS V14.01,2013-05-18 04:46:00,
2013-05-17 23:51:00,66.1,60.5,29.89,SE,131,10.0,12.0,82,0.00,,FEW065,0.56,VWS V14.01,2013-05-18 04:51:00,
2013-05-17 23:56:00,65.7,60.4,29.89,ESE,117,8.0,12.0,83,0.00,,CLR,0.56,VWS V14.01,2013-05-18 04:56:00,